COSMOS 977

Satellite information

Favourite Embed

Satellite Type and Status

PAYLOADIN ORBIT

Key statistics

Satellite COSMOS 977 at a glance.

Uptime

17458

Days in orbit

Revolutions

≈ 12.6

Per day

Orbit

LEO

Low Earth Orbit

Inclination

74.0

Latest

Satellite identification and parameters

Extended collection of information and parameters for COSMOS 977.

Object identification

Identified? True

Debris? False

Object name: COSMOS 977

International designator: 1978-005B

Object number (NORAD): 10584

Object ID (CCSDS): 10584

Country: COMMONWEALTH OF INDEPENDENT STATES (CIS)

Current information (Y/N): Y

RCS size: MEDIUM

Orbital parameters

Period: 114.469 minutes

Inclination: 74.0288 deg

SMA: 7809.409 km

Apoapsis: 1462.493 km

Periapsis: 1400.055 km

RAAN: 293.7319 deg

Eccentricy: 0.00399759

Argument of periapsis: 97.6305 deg

Mean anomaly: 56.5304 deg

Mean motion: 12.57985201 rev/day

Mean motion (dot): 0.00000002 rev/day2

B* drag term: 0.00010371579 1/REarth

Two-line elements (TLE)

Creation date: Oct. 28, 2025, 2:18 a.m.

Reference frame: TEME

Reference center: EARTH

Epoch: Oct. 27, 2025, 10:13 a.m. UTC

TLE line 0: 0 COSMOS 977

TLE line 1: 1 10584U 78005B 25300.42588832 .00000002 00000-0 10372-3 0 9996

TLE line 2: 2 10584 74.0288 293.7319 0039976 97.6305 56.5304 12.57985201182180

Live tracking on map

Real-time ground track for satellite COSMOS 977.

In-orbit conjunctions

There are no conjunctions computed for COSMOS 977, at the moment. Check back to stay up to date, as we update our databases every day.

Go to all conjunctions

Associated space launch

Tselina-D satellites provided detailed observation of radio sources detected by the smaller Tselina-O satellites as part of the Tselina ELINT system.

COSMOS 977 was lifted into orbit during the mission ‘Vostok 8A92M | Tselina-D 14’, on board a Vostok 8A92M space rocket.

The launch took place on Jan. 10, 1978, 1:23 p.m. from 43/4 (43R).

For more information about the launch, click the button.

Launch to space Vostok 8A92M | Tselina-D 14
Vostok 8A92M | Tselina-D 14

Agency: N/A

Status: Launch Successful

Launch date: Jan. 10, 1978, 1:23 p.m. UTC

Rocket: Vostok 8A92M

Launch pad: 43/4 (43R)

Location: Plesetsk Cosmodrome, Russian Federation

...

Latest news about this satellite

There are no fresh news available about this satellite. Check back as we update our databases every day.


Newsletter sign-up

Weekly statistics, charts and insights to help you stay on top of the space industry.